Regional Weather Roundup
Issued by NWS San Diego, CA

Current Version | Previous Version | Text Only | Print | Product List | Glossary On
Versions: 1 2 3 4 5 6 7 8 9 10 11 12 13 14 15 16 17 18 19 20 21 22 23 24
000
ASUS46 KSGX 301310
RWRSGX

SAN DIEGO HOURLY WEATHER ROUNDUP
NATIONAL WEATHER SERVICE SAN DIEGO CA
600 AM PDT FRI SEP 30 2022

NOTE: "FAIR" INDICATES FEW OR NO CLOUDS BELOW 12,000 FEET WITH NO
SIGNIFICANT WEATHER AND/OR OBSTRUCTIONS TO VISIBILITY.

CAZ042-043-060-061-PZZ750-775-301400-

GREATER SAN DIEGO AREA

CITY           SKY/WX    TMP DP  RH WIND       PRES   REMARKS
SAN DIEGO AP   CLOUDY    68  63  84 NE3       29.92S
BROWN FIELD    FOG       65  63  93 W5        29.91S VSB 1/2
MIRAMAR MCAS   CLOUDY    66  63  90 SW3       29.90S
MONTGOMERY FLD CLOUDY    66  63  90 SW3       29.91S FOG
GILLESPIE FLD  CLOUDY    66  64  94 NW5       29.90S FOG
LEMON GROVE      N/A     66  64  93 SW2       29.88R

$$

NORTH SAN DIEGO COUNTY

CITY           SKY/WX    TMP DP  RH WIND       PRES   REMARKS
CAMP PENDLETON CLOUDY    67  63  87 CALM      29.90S
OCEANSIDE AP   CLOUDY    68  63  84 N3        29.89S
OCEANSIDE HBR    N/A     67 -37   1 CALM      29.96S
VISTA            N/A     65  61  86 CALM      29.88S
CARLSBAD       CLOUDY    64  63  96 E3        29.90S FOG
ENCINITAS        N/A     64  63  96 CALM        N/A
LA JOLLA SCRIP   N/A     66  62  87 CALM      29.89S
FALLBROOK      FOG       63  61  94 CALM      29.91F VSB 1/4
ESCONDIDO        N/A     64  62  91 W3        29.89S
SAN MARCOS       N/A     64  61  91 CALM      29.92S
RANCHO BERNARD   N/A     64  61  91 CALM      29.89S
POWAY            N/A     63  61  93 CALM      29.91S

$$

EAST SAN DIEGO COUNTY

CITY           SKY/WX    TMP DP  RH WIND       PRES   REMARKS
RAMONA         CLEAR     55  53  93 CALM      29.92S
SANTEE           N/A     65  64  94 CALM      29.86S
LA MESA          N/A     65  63  93 CALM      29.84S
EL CAJON         N/A     65  64  96 SW1       29.78R
ALPINE           N/A     60  54  79 CALM      30.04S
DESCANSO N       N/A     56  39  52 N8        29.88R

$$

ORANGE COUNTY AND THE LOS ANGELES BASIN

CITY           SKY/WX    TMP DP  RH WIND       PRES   REMARKS
JOHN WAYNE AP  CLOUDY    70  62  76 CALM      29.90S
LAGUNA BEACH     N/A     67  64  89 CALM      29.89S
LAKE FOREST FR   N/A     62  58  86 NW2       29.78R
SANTA ANA        N/A     67  64  89 SE2       29.88S
HUNTINGTON BCH   N/A     68  65  90 CALM      29.89S
LOS ALAMITOS   CLOUDY    67  64  90 CALM      29.87S
FULLERTON      CLOUDY    68  64  87 S5        29.89S
LONG BEACH     CLOUDY    69  62  78 S3        29.89F
L.A. AP        CLOUDY    69  62  78 CALM      29.90S
L.A. DOWNTOWN  CLOUDY    68  63  84 CALM      29.90S

$$

THE INLAND EMPIRE

CITY           SKY/WX    TMP DP  RH WIND       PRES   REMARKS
CORONA         CLOUDY    64  64 100 CALM      29.91F FOG
UPLAND AP        N/A     63  57  82 CALM      29.92S
CHINO          CLOUDY   N/A N/A N/A SW5       29.92S FOG
ONTARIO        PTCLDY    64  62  93 W5        29.91S FOG
SAN BERNARDINO FAIR      65  54  67 CALM      29.92S
RIVERSIDE AP   CLOUDY    64  63  96 W3        29.91S FOG
MORENO VALLEY    N/A     64  61  90 CALM      29.86S
MARCH ARB      CLEAR     61  56  83 CALM      29.92S
HORSETHIEF CYN   N/A     60  52  75 CALM      29.86R
PERRIS           N/A     63  58  82 CALM        N/A
LAKE ELSINORE    N/A     62  57  86 CALM      29.80S
HEMET AP       FAIR      60  56  87 CALM      29.93S
FRENCH VALLEY  FAIR      61  57  88 CALM      29.93S
TEMECULA         N/A     61  59  94 CALM        N/A

$$

SAN BERNARDINO AND RIVERSIDE COUNTY MOUNTAINS

CITY           SKY/WX    TMP DP  RH WIND       PRES   REMARKS
BIG BEAR AP    CLEAR     37  30  75 CALM      30.22S
BIG BEAR LAKE    N/A     42  29  59 CALM      29.91F
WRIGHTWOOD       N/A     65  28  24 CALM      29.68F
ANGELUS OAKS     N/A     57  32  38 CALM      29.77S
IDYLLWILD        N/A     49  41  73 CALM      29.80S
TORO PEAK        N/A     53  27  36 W20         N/A

$$

SOUTHERN DESERT INCLUDING THE COACHELLA VALLEY

CITY           SKY/WX    TMP DP  RH WIND       PRES   REMARKS
PALM SPRINGS   CLEAR     77  48  35 CALM      29.85R
THOUSAND PALMS   N/A     76  54  46 NE2       29.77R
INDIO            N/A     78  59  52 CALM      29.80S
THERMAL        CLEAR     73  60  63 NE5       29.79S
BORREGO AP     FAIR      64  50  59 NW6       29.82S
OCOTILLO WELLS   N/A     78  53  41 NW1       29.76F
CANEBRAKE        N/A     76  45  33 W1        29.74S
BLYTHE         CLEAR     79  59  50 SE5       29.82S
IMPERIAL AP    CLEAR     79  67  66 SE10      29.78S
EL CENTRO NAS  CLEAR     80  73  79 SE3       29.80S
YUMA AZ        CLEAR     83  60  45 SE8       29.81S

$$

UPPER DESERT

CITY           SKY/WX    TMP DP  RH WIND       PRES   REMARKS
VICTORVILLE AP CLEAR     61  45  55 S5        29.99S
HESPERIA         N/A     65  44  45 CALM      29.62S
APPLE VALLEY     N/A     50  46  85 CALM      29.87F
PALMDALE       CLEAR     58  44  60 SE3       29.94F
LANCASTER      CLEAR     61  41  47 W14       29.93S
EDWARDS AFB    PTCLDY    59  42  53 W6        29.91S
DAGGETT        CLEAR     70  47  43 W14       29.90F
29 PALMS N     CLEAR     67  44  43 CALM      29.98R
29 PALMS JTNP    N/A     71  43  36 CALM      29.74S
NEEDLES        CLEAR     81  58  45 CALM      29.84S

$$

REGIONAL REPORTS

CITY           SKY/WX    TMP DP  RH WIND       PRES   REMARKS
SANTA BARBARA  CLOUDY    62  59  90 E5        29.90S
SANDBERG       CLEAR     61  41  47 MISG      30.05R
LAS VEGAS NV   CLEAR     77  38  24 S6        29.89S
PHOENIX AZ     PTCLDY    76  56  49 E6        29.88S
TIJUANA        FOG       64  64 100 CALM      29.93S VSB 1
ENSENADA NW      N/A     66  32  28 CALM      29.85S

$$

OFFSHORE ISLANDS

CITY           SKY/WX    TMP DP  RH WIND       PRES   REMARKS
CATALINA ARPT  FOG       61  59  93 E6        29.93S VSB 3/4
SAN CLEMENTE I CLOUDY    61  32  33 W12       29.92S
SAN NICOLAS IS CLOUDY    61  58  90 NW13      29.90S

$$

MARINE AND OFFSHORE BUOY REPORTS

STATION/POSITION SKY/WX   TEMP    WIND        PRES    VSBY  SWELL
                          AIR SEA DIR/SP/G                  HT/PER/DIR
                          (F)     (DEG/KT/KT) (MB)    (MI)  (FT/S/D)
TANNER BANKS               65     310/ 12/ 17 1012.2S         7/300/12
S CLEMENTE BASIN           64 69  290/ 12/ 16 1012.1S         5/250/12
SAN NICOLAS IS.               65                N/A           5/310/13
SO. S. ROSA ISLA           62 64  320/ 12/ 16 1012.2S         7/310/11
W. S. BARBARA CH           59 60  330/  8/ 12 1012.0R         7/290/10
M. S. BARBARA CH           61 63  220/  8/ 10 1012.0R         3/270/ 8
S. MONICA BASIN            65 72  120/  4/  8 1012.5R         3/260/ 9
S PEDRO CHANNEL               72                N/A           2/170/14
OCEANSIDE OFFSHR              71                N/A           2/200/14
TORREY PINES OTR              72                N/A           2/260/13
SAN DIEGO BAY                 72              1012.5R

$$




USA.gov is the U.S. government's official web portal to all federal, state and local government web resources and services.